QPF
0.00 0.00 0.00 0.00 0.00 0.00 0.00 0.00 0.00 0.00 0.00 0.00 0.00 0.00 0.00 0.00 0.00 0.00 0.00 0.00 0.00 0.00 0.00 0.00 0.01 0.02 0.00 0.00 0.03 0.02 0.02 0.04 0.00
0.00 0.00 0.00 0.00 0.00 0.00 0.00 0.00 0.00 0.00 0.00 0.00 0.00 0.00 0.00 0.00 0.00 0.00 0.00 0.00 0.00 0.00 0.00 0.00 0.00 0.00 0.00 0.00 0.00 0.00 0.00 0.00 0.00
0.00 0.00 0.00 0.00 0.00 0.00 0.00 0.00 0.00 0.00 0.00 0.00 0.00 0.00 0.00 0.00 0.00 0.00 0.00 0.00 0.00 0.00 0.00 0.00 0.00 0.00 0.00 0.00 0.00 0.00 0.00 0.03 0.02
0.00 0.00 0.00 0.00 0.00 0.01 0.01 0.01 0.00 0.00 0.00 0.00 0.00 0.00 0.00 0.00 0.00 0.00 0.00 0.00 0.00 0.00 0.00 0.00 0.00 0.00 0.00 0.00 0.00 0.00 0.00 0.00 0.00
0.00 0.00 0.00 0.01 0.01 0.01 0.01 0.00 0.00 0.00 0.00 0.00 0.00 0.00 0.00 0.00 0.00 0.00 0.00 0.01 0.00 0.00 0.00 0.00 0.00 0.00 0.00 0.00 0.00 0.00 0.00 0.00 0.00
0.00 0.00 0.00 0.01 0.02 0.03 0.03 0.01 0.00 0.00 0.00 0.00 0.00 0.00 0.00 0.00 0.00 0.00 0.00 0.00 0.00 0.00 0.00 0.00 0.00 0.00 0.00 0.00 0.00 0.00 0.00 0.00 0.00
0.00 0.00 0.00 0.00 0.00 0.01 0.02 0.01 0.00 0.00 0.00 0.00 0.00 0.00 0.00 0.00 0.00 0.00 0.00 0.00 0.00 0.00 0.01 0.01 0.01 0.00 0.00 0.00 0.00 0.00 0.00 0.00 0.00
0.00 0.00 0.00 0.00 0.00 0.00 0.01 0.00 0.00 0.00 0.00 0.00 0.00 0.00 0.00 0.00 0.00 0.00 0.01 0.01 0.01 0.01 0.02 0.03 0.02 0.02 0.01 0.00 0.00 0.00 0.00 0.00 0.00
0.00 0.00 0.00 0.00 0.00 0.00 0.00 0.00 0.00 0.00 0.00 0.00 0.00 0.00 0.00 0.00 0.00 0.00 0.00 0.03 0.01 0.01 0.03 0.03 0.03 0.02 0.00 0.00 0.00 0.00 0.00 0.00 0.00
0.00 0.00 0.00 0.00 0.00 0.00 0.00 0.00 0.00 0.00 0.00 0.00 0.00 0.00 0.00 0.00 0.00 0.00 0.00 0.01 0.02 0.02 0.03 0.06 0.05 0.03 0.00 0.00 0.00 0.00 0.00 0.00 0.00
0.00 0.00 0.00 0.00 0.00 0.00 0.00 0.00 0.00 0.00 0.00 0.00 0.00 0.00 0.00 0.00 0.00 0.00 0.00 0.00 0.01 0.01 0.03 0.03 0.05 0.05 0.01 0.00 0.00 0.00 0.00 0.00 0.00
0.00 0.00 0.00 0.00 0.00 0.00 0.00 0.00 0.00 0.00 0.00 0.00 0.00 0.00 0.00 0.00 0.00 0.00 0.00 0.00 0.00 0.00 0.01 0.04 0.07 0.06 0.05 0.05 0.00 0.00 0.00 0.00 0.00
0.00 0.00 0.00 0.00 0.00 0.00 0.00 0.00 0.00 0.00 0.00 0.00 0.00 0.00 0.00 0.00 0.00 0.00 0.00 0.00 0.00 0.00 0.00 0.00 0.01 0.04 0.04 0.05 0.02 0.01 0.01 0.00 0.00
0.00 0.00 0.00 0.00 0.00 0.00 0.00 0.00 0.00 0.00 0.00 0.00 0.00 0.00 0.00 0.00 0.00 0.00 0.00 0.00 0.00 0.00 0.00 0.00 0.00 0.01 0.03 0.03 0.03 0.01 0.00 0.00 0.00
0.00 0.00 0.00 0.00 0.00 0.00 0.00 0.00 0.00 0.00 0.00 0.00 0.00 0.00 0.00 0.00 0.00 0.00 0.00 0.00 0.00 0.00 0.00 0.00 0.00 0.00 0.01 0.03 0.03 0.01 0.01 0.01 0.00
0.00 0.00 0.00 0.00 0.00 0.00 0.00 0.00 0.00 0.00 0.00 0.00 0.00 0.00 0.00 0.00 0.00 0.00 0.00 0.00 0.00 0.00 0.00 0.00 0.00 0.00 0.00 0.00 0.02 0.04 0.03 0.01 0.00
0.00 0.00 0.00 0.00 0.00 0.00 0.00 0.00 0.00 0.00 0.00 0.00 0.00 0.00 0.00 0.00 0.00 0.00 0.00 0.00 0.00 0.00 0.00 0.00 0.00 0.00 0.00 0.00 0.00 0.01 0.02 0.02 0.00
0.00 0.00 0.00 0.00 0.00 0.00 0.00 0.00 0.00 0.00 0.00 0.00 0.00 0.00 0.00 0.00 0.00 0.00 0.00 0.00 0.00 0.00 0.00 0.00 0.00 0.00 0.00 0.00 0.00 0.00 0.00 0.00 0.00
0.00 0.00 0.00 0.00 0.00 0.00 0.00 0.00 0.00 0.00 0.00 0.00 0.00 0.00 0.00 0.00 0.00 0.00 0.00 0.00 0.00 0.00 0.00 0.00 0.00 0.00 0.00 0.00 0.00 0.00 0.00 0.00 0.00
0.00 0.00 0.00 0.00 0.00 0.00 0.00 0.00 0.00 0.00 0.00 0.00 0.00 0.00 0.00 0.00 0.00 0.00 0.00 0.00 0.00 0.00 0.00 0.00 0.00 0.00 0.00 0.00 0.00 0.00 0.00 0.00 0.00
MSLP
1016.24 1016.40 1016.48 1016.42 1016.50 1016.81 1016.82 1016.96 1017.00 1017.12 1017.39 1017.29 1017.20 1017.28 1017.45 1017.50 1017.52 1017.57 1017.58 1017.47 1017.42 1017.46 1017.64 1017.82 1017.89 1018.07 1018.13 1018.08 1018.20 1018.35 1018.53 1018.58 1018.71
1016.46 1016.57 1016.69 1016.69 1016.84 1016.96 1017.12 1017.26 1017.39 1017.31 1017.58 1017.45 1017.56 1017.65 1017.83 1017.85 1017.95 1017.91 1017.86 1017.71 1017.68 1017.80 1017.79 1018.01 1018.15 1018.32 1018.45 1018.57 1018.67 1018.70 1018.92 1019.04 1019.19
1016.60 1016.64 1016.96 1016.95 1017.05 1017.18 1017.38 1017.43 1017.54 1017.73 1017.77 1017.72 1017.93 1018.02 1018.02 1018.14 1018.27 1018.23 1018.16 1017.86 1017.91 1018.07 1018.13 1018.18 1018.36 1018.50 1018.67 1018.84 1018.99 1019.12 1019.18 1019.40 1019.62
1016.48 1016.80 1016.93 1017.08 1017.23 1017.37 1017.56 1017.54 1017.85 1018.04 1018.12 1018.19 1018.36 1018.46 1018.51 1018.53 1018.55 1018.44 1018.33 1018.10 1018.08 1018.29 1018.40 1018.45 1018.58 1018.71 1018.89 1018.96 1019.20 1019.51 1019.60 1019.73 1019.92
1016.65 1016.96 1017.07 1017.12 1017.19 1017.55 1017.69 1017.93 1018.23 1018.24 1018.52 1018.71 1018.85 1018.82 1019.02 1018.97 1018.93 1018.64 1018.55 1018.39 1018.49 1018.51 1018.64 1018.78 1018.90 1018.97 1019.11 1019.28 1019.44 1019.64 1019.91 1020.02 1020.15
1017.13 1017.16 1017.30 1017.13 1017.31 1017.57 1017.81 1018.20 1018.47 1018.73 1019.00 1019.22 1019.29 1019.15 1019.45 1019.48 1019.35 1019.08 1018.87 1018.76 1018.75 1018.89 1018.92 1019.03 1019.19 1019.35 1019.50 1019.55 1019.72 1019.94 1020.18 1020.32 1020.27
1017.80 1017.67 1017.38 1017.60 1017.69 1017.80 1018.06 1018.56 1018.87 1019.14 1019.57 1019.67 1019.62 1019.91 1019.85 1020.05 1020.01 1019.57 1019.14 1019.00 1018.96 1019.16 1019.16 1019.28 1019.47 1019.66 1019.74 1019.94 1020.15 1020.39 1020.55 1020.58 1020.69
1018.22 1018.20 1018.13 1018.09 1018.08 1018.39 1018.61 1018.95 1019.12 1019.59 1019.85 1020.08 1020.26 1020.29 1020.36 1020.62 1020.42 1020.06 1019.53 1019.33 1019.39 1019.36 1019.48 1019.64 1019.70 1019.82 1020.00 1020.21 1020.48 1020.72 1020.81 1020.77 1020.90
1018.49 1018.62 1018.71 1018.69 1018.70 1018.72 1018.98 1019.16 1019.57 1019.99 1020.22 1020.45 1020.66 1020.81 1020.99 1021.04 1020.85 1020.64 1020.13 1019.72 1019.63 1019.71 1019.70 1019.95 1019.94 1020.07 1020.25 1020.61 1020.96 1021.01 1020.92 1020.97 1021.10
1018.62 1018.83 1018.94 1019.06 1019.14 1019.26 1019.50 1019.67 1019.95 1020.38 1020.70 1021.05 1021.27 1021.41 1021.59 1021.55 1021.39 1021.37 1020.81 1020.44 1020.04 1020.05 1020.07 1020.15 1020.23 1020.30 1020.55 1021.00 1021.14 1021.20 1021.19 1021.23 1021.22
1018.71 1019.00 1019.13 1019.25 1019.27 1019.48 1019.70 1020.00 1020.21 1020.62 1021.04 1021.47 1021.76 1021.94 1022.07 1022.06 1022.08 1021.77 1021.55 1021.38 1020.86 1020.67 1020.53 1020.44 1020.55 1020.55 1020.86 1021.23 1021.29 1021.22 1021.31 1021.37 1021.39
1018.71 1019.05 1019.28 1019.34 1019.42 1019.68 1020.00 1020.37 1020.54 1020.78 1021.37 1021.80 1022.23 1022.34 1022.59 1022.65 1022.52 1022.47 1022.17 1022.31 1022.01 1021.65 1021.35 1020.85 1020.88 1020.99 1021.16 1021.27 1021.48 1021.55 1021.59 1021.50 1021.51
1018.83 1019.18 1019.36 1019.43 1019.61 1019.88 1020.22 1020.62 1021.01 1021.13 1021.89 1022.28 1022.68 1022.87 1023.12 1023.24 1023.20 1023.03 1022.84 1022.89 1023.08 1022.61 1022.37 1021.96 1021.58 1021.39 1021.45 1021.61 1021.74 1021.84 1021.95 1021.86 1021.80
1018.84 1019.18 1019.48 1019.59 1019.79 1020.07 1020.38 1020.82 1020.96 1021.71 1022.26 1022.66 1023.15 1023.35 1023.65 1023.88 1023.73 1023.73 1023.63 1023.59 1023.65 1023.58 1023.16 1022.83 1022.56 1022.18 1021.87 1021.80 1021.95 1022.07 1022.39 1022.35 1022.17
1018.80 1019.19 1019.45 1019.64 1019.96 1020.35 1020.59 1020.85 1021.49 1022.02 1022.56 1023.14 1023.58 1023.93 1024.17 1024.42 1024.34 1024.28 1024.04 1024.15 1024.12 1024.06 1023.95 1023.75 1023.63 1023.27 1022.48 1022.41 1022.34 1022.45 1022.66 1022.71 1022.57
1018.83 1019.20 1019.48 1019.68 1019.95 1020.22 1020.62 1021.23 1021.62 1022.70 1022.90 1023.36 1024.27 1024.62 1024.64 1024.68 1024.67 1024.63 1024.57 1024.57 1024.58 1024.49 1024.46 1024.44 1024.30 1024.06 1023.55 1023.06 1022.83 1022.87 1022.98 1023.06 1023.30
1018.81 1019.14 1019.52 1019.67 1020.01 1020.39 1020.67 1020.93 1021.95 1022.70 1022.85 1023.63 1024.45 1025.17 1025.23 1024.98 1025.08 1025.06 1024.98 1025.07 1024.85 1024.88 1024.93 1024.86 1024.82 1024.71 1024.30 1023.72 1023.43 1023.27 1023.30 1023.40 1023.67
1018.76 1019.08 1019.45 1019.72 1019.89 1020.32 1020.56 1020.86 1021.30 1022.25 1023.03 1023.15 1023.59 1024.68 1024.89 1025.20 1025.34 1025.30 1025.19 1025.20 1025.28 1025.30 1025.21 1025.24 1025.20 1025.03 1024.77 1024.42 1024.10 1023.76 1023.72 1023.89 1023.96
1018.71 1018.97 1019.32 1019.64 1019.92 1020.26 1020.44 1020.72 1021.14 1021.71 1022.64 1023.37 1023.39 1023.51 1023.80 1024.69 1025.60 1025.54 1025.55 1025.60 1025.70 1025.70 1025.68 1025.67 1025.62 1025.46 1025.23 1024.90 1024.55 1024.36 1024.08 1024.28 1024.40
1018.69 1018.91 1019.19 1019.52 1019.88 1020.17 1020.37 1020.71 1021.10 1021.42 1022.07 1022.56 1023.28 1023.62 1023.82 1024.08 1024.73 1025.73 1025.88 1025.92 1025.85 1025.87 1025.83 1025.85 1025.87 1025.73 1025.59 1025.35 1024.96 1024.46 1024.35 1024.54 1024.67
Thickness
5675 5673 5672 5674 5676 5676 5680 5682 5684 5684 5682 5684 5686 5686 5687 5689 5690 5690 5691 5693 5694 5695 5695 5694 5694 5693 5694 5697 5697 5697 5696 5696 5696
5674 5673 5671 5670 5669 5673 5676 5677 5678 5681 5679 5681 5681 5682 5683 5685 5686 5687 5688 5689 5690 5690 5692 5690 5690 5690 5690 5690 5690 5692 5691 5691 5690
5674 5673 5669 5668 5668 5670 5672 5674 5675 5674 5675 5678 5676 5678 5680 5680 5680 5682 5683 5685 5685 5685 5685 5686 5686 5686 5686 5685 5685 5685 5686 5686 5684
5674 5671 5669 5667 5667 5669 5669 5671 5670 5670 5670 5671 5672 5673 5674 5674 5675 5677 5679 5680 5681 5680 5680 5681 5681 5681 5681 5682 5681 5679 5680 5680 5678
5672 5669 5668 5667 5668 5667 5667 5666 5666 5667 5666 5666 5666 5668 5667 5669 5670 5674 5674 5676 5675 5677 5676 5676 5676 5677 5677 5676 5676 5675 5673 5674 5674
5667 5667 5666 5667 5666 5665 5664 5663 5663 5662 5662 5661 5662 5666 5663 5663 5665 5668 5669 5670 5671 5671 5672 5672 5671 5671 5671 5672 5671 5670 5668 5668 5669
5660 5662 5664 5663 5662 5662 5661 5659 5659 5658 5657 5658 5659 5657 5657 5655 5657 5662 5665 5666 5667 5666 5668 5668 5667 5665 5666 5666 5665 5663 5662 5662 5662
5655 5655 5656 5656 5657 5656 5656 5655 5655 5652 5652 5651 5651 5653 5652 5648 5651 5656 5659 5660 5661 5662 5662 5662 5662 5662 5660 5660 5658 5657 5656 5657 5656
5651 5650 5649 5649 5650 5651 5650 5650 5648 5646 5645 5645 5645 5645 5644 5644 5646 5649 5652 5655 5656 5656 5657 5656 5657 5657 5655 5653 5651 5650 5651 5650 5649
5648 5645 5644 5642 5642 5642 5642 5641 5640 5638 5637 5636 5635 5636 5636 5637 5639 5640 5644 5647 5650 5650 5650 5649 5649 5650 5648 5645 5645 5644 5644 5643 5643
5644 5642 5640 5638 5636 5634 5635 5633 5632 5630 5628 5626 5626 5626 5627 5629 5630 5633 5635 5636 5639 5640 5642 5643 5642 5643 5641 5638 5639 5640 5638 5636 5636
5639 5636 5635 5634 5632 5629 5627 5625 5624 5623 5619 5618 5616 5618 5618 5619 5622 5624 5626 5625 5627 5629 5632 5635 5635 5634 5634 5633 5632 5631 5630 5631 5630
5632 5630 5628 5627 5626 5623 5621 5618 5615 5616 5611 5609 5607 5608 5608 5610 5612 5614 5616 5616 5616 5619 5620 5623 5625 5625 5625 5624 5624 5624 5623 5623 5623
5626 5624 5622 5620 5618 5616 5614 5611 5611 5606 5602 5600 5598 5597 5597 5598 5600 5602 5604 5605 5606 5607 5610 5612 5613 5613 5615 5616 5616 5616 5612 5614 5615
5620 5618 5616 5614 5611 5608 5607 5605 5600 5598 5594 5591 5588 5586 5586 5587 5590 5591 5594 5594 5595 5596 5598 5599 5599 5600 5604 5605 5606 5606 5605 5605 5605
5613 5610 5608 5607 5605 5603 5600 5596 5594 5585 5585 5582 5575 5574 5576 5578 5579 5580 5583 5583 5584 5585 5586 5586 5587 5589 5591 5593 5595 5595 5595 5595 5593
5604 5602 5600 5599 5597 5594 5592 5591 5583 5578 5577 5571 5565 5563 5565 5567 5567 5568 5570 5571 5574 5574 5573 5574 5575 5576 5579 5583 5584 5585 5586 5585 5584
5595 5594 5591 5589 5588 5586 5584 5582 5580 5572 5566 5567 5566 5554 5559 5554 5556 5557 5559 5561 5561 5562 5563 5563 5565 5566 5568 5571 5573 5574 5575 5575 5574
5585 5584 5582 5580 5578 5576 5575 5574 5571 5567 5561 5555 5556 5556 5555 5549 5546 5546 5546 5547 5548 5549 5551 5552 5552 5554 5556 5558 5559 5560 5563 5562 5563
5574 5574 5572 5570 5568 5567 5566 5563 5560 5559 5554 5552 5546 5545 5544 5543 5540 5534 5533 5534 5536 5538 5540 5540 5541 5543 5544 5546 5548 5551 5552 5551 5552